Regional Weather Roundup
Issued by NWS

Home | Current Version | Previous Version | Text Only | Print | Product List | Glossary Off
Versions: 1 2 3 4 5 6 7 8 9 10 11 12 13 14 15 16 17 18 19 20 21 22 23 24 25 26 27 28 29 30 31 32 33 34 35 36 37 38 39 40 41 42 43 44 45 46 47 48 49 50

385
ASUS44 KLIX 201205
RWRLA
LOUISIANA WEATHER ROUNDUP
NATIONAL WEATHER SERVICE NEW ORLEANS LA
700 AM CDT SUN APR 20 2014

NOTE: "FAIR" INDICATES FEW OR NO CLOUDS BELOW 12,000 FEET WITH NO
      SIGNIFICANT WEATHER AND/OR OBSTRUCTIONS TO VISIBILITY.
      SKY/WX - SKY CONDITION AND SIGNIFICANT WEATHER.
      TMP - AIR TEMPERATURE.    DP   - DEWPOINT TEMPERATURE.
      RH  - RELATIVE HUMIDITY.  PRES - PRESSURE.
      HX  - HEAT INDEX.         WCI  - WIND CHILL INDEX.

*  THESE STATIONS ARE NOT NWS OR FAA STATIONS AND ARE NOT UNDER
   NWS QUALITY CONTROL.

LAZ040-048-061>063-065-066-069-201300-
SOUTHEAST LOUISIANA

CITY           SKY/WX    TMP DP  RH WIND       PRES   REMARKS
N.O. AUDUBON     N/A     62  55  80 MISG        N/A
6HR MIN TEMP:  61; 6HR MAX TEMP:  65;

N.O. INTL ARPT PTCLDY    63  57  81 NE6       30.15R
6HR MIN TEMP:  58; 6HR MAX TEMP:  66;

N.O. LAKEFRONT CLEAR     64  58  80 E7        30.16R
6HR MIN TEMP:  64; 6HR MAX TEMP:  68;

N.O. DOWNTOWN* FAIR      64  52  63 CALM      30.15S
6HR MIN TEMP:  64; 6HR MAX TEMP:  70;

SLIDELL        CLEAR     51  48  89 CALM      30.16R
6HR MIN TEMP:  51; 6HR MAX TEMP:  57;

BATON ROUGE    CLEAR     55  51  86 CALM      30.15R
6HR MIN TEMP:  53; 6HR MAX TEMP:  58;

BOOTHVILLE     CLEAR     61  59  93 E3        30.15R
6HR MIN TEMP:  61; 6HR MAX TEMP:  64;

BELLE CHASSE   CLEAR     54  51  90 NE3       30.15R
6HR MIN TEMP:  52; 6HR MAX TEMP:  58;

BOGALUSA*        N/A     51  48  89 CALM      30.19R
6HR MIN TEMP:  50; 6HR MAX TEMP:  56;

GALLIANO*      SUNNY     54  53  95 CALM      30.14R
6HR MIN TEMP:  53; 6HR MAX TEMP:  60;

NEW ROADS*     FAIR      54  53  97 CALM      30.15S FOG
6HR MIN TEMP:  53; 6HR MAX TEMP:  60;

GONZALES*      FAIR      54  54 100 CALM      30.15R
6HR MIN TEMP:  54; 6HR MAX TEMP:  58;

HAMMOND*       CLEAR     54  50  87 CALM      30.18R
HOUMA*         CLEAR     55  54  94 N3        30.15R
PORT FOURCHON* SUNNY     64  63  94 NW5       30.16R

$$

LAZ041-044-053-054-201300-
SOUTHWEST LOUISIANA

CITY           SKY/WX    TMP DP  RH WIND       PRES   REMARKS
LAKE CHARLES   CLEAR     55  55 100 CALM      30.16R
6HR MIN TEMP:  55; 6HR MAX TEMP:  59;

LAFAYETTE      CLEAR     55  54  96 CALM      30.16R
6HR MIN TEMP:  55; 6HR MAX TEMP:  61;

PATTERSON      CLEAR     55  54  94 CALM      30.18R
6HR MIN TEMP:  55; 6HR MAX TEMP:  61;

SALT POINT       N/A     63  59  87 N3        30.14R
6HR MIN TEMP:  63; 6HR MAX TEMP:  68; 6HR PCP:  0.01;

NEW IBERIA     CLEAR     58  54  86 CALM      30.16R
6HR MIN TEMP:  56; 6HR MAX TEMP:  60;

CHENAULT AIRPK CLEAR     57  55  94 CALM      30.17R

$$

LAZ027-028-201300-
CENTRAL LOUISIANA

CITY           SKY/WX    TMP DP  RH WIND       PRES   REMARKS
FORT POLK      CLEAR     54  52  93 CALM      30.16R
6HR MIN TEMP:  53; 6HR MAX TEMP:  60;

ALEXANDRIA INT PTCLDY    53  53 100 CALM      30.16R
6HR MIN TEMP:  52; 6HR MAX TEMP:  58;

ALEXANDRIA     CLEAR     50  48  93 CALM      30.16R FOG
6HR MIN TEMP:  50; 6HR MAX TEMP:  56;


$$

LAZ001-002-201300-
NORTHWEST LOUISIANA

CITY           SKY/WX    TMP DP  RH WIND       PRES   REMARKS
SHREVEPORT     MOCLDY    55  53  93 CALM      30.16R
6HR MIN TEMP:  55; 6HR MAX TEMP:  62;

BARKSDALE AFB  NOT AVBL
DTN SHREVEPORT CLEAR     55  52  89 CALM      30.16R
6HR MIN TEMP:  53; 6HR MAX TEMP:  59;


$$

LAZ014-016-201300-
NORTHEAST LOUISIANA

CITY           SKY/WX    TMP DP  RH WIND       PRES   REMARKS
MONROE         CLEAR     54  54 100 CALM      30.18R VSB 1/4
6HR MIN TEMP:  52; 6HR MAX TEMP:  57;

TALLULAH       FOG       56  56 100 CALM      30.18R VSB 3/4
6HR MIN TEMP:  55; 6HR MAX TEMP:  61;


$$




USA.gov is the U.S. government's official web portal to all federal, state and local government web resources and services.